Hourly Weather Rudniki

Today, 15 April, Thursday

Time Temperature Precipitation Wind Pressure Humidity
00:00 -2°C° 0.3 mm 6 mps 755 mmHg 93%
01:00 -2°C° 0.3 mm 6 mps 755 mmHg 96%
02:00 -2°C° 0.5 mm 6 mps 755 mmHg 97%
03:00 -2°C° 0.5 mm 6 mps 754 mmHg 97%
04:00 -2°C° 0.5 mm 6 mps 754 mmHg 97%
05:00 -2°C° 0.7 mm 6 mps 754 mmHg 97%
06:00 -2°C° 0.7 mm 6 mps 754 mmHg 98%
07:00 -2°C° 0.7 mm 6 mps 754 mmHg 98%
08:00 -2°C° 0.7 mm 6 mps 754 mmHg 98%
09:00 -2°C° 0.7 mm 6 mps 753 mmHg 98%
10:00 -1°C° 0.7 mm 5 mps 753 mmHg 98%
11:00 -1°C° 0.9 mm 5 mps 753 mmHg 98%
12:00 -1°C° 0.9 mm 5 mps 753 mmHg 99%
13:00 -1°C° 0.9 mm 5 mps 753 mmHg 99%
14:00 -1°C° 0.7 mm 4 mps 753 mmHg 99%
15:00 -1°C° 0.7 mm 4 mps 753 mmHg 99%
16:00 -1°C° 0.7 mm 4 mps 753 mmHg 99%
17:00 0°C° 0.4 mm 3 mps 753 mmHg 99%
18:00 0°C° 0.4 mm 3 mps 753 mmHg 99%
19:00 0°C° 0.4 mm 3 mps 753 mmHg 99%
20:00 0°C° 0.3 mm 3 mps 753 mmHg 99%
21:00 +1°C° 0.3 mm 3 mps 753 mmHg 99%
22:00 +1°C° 0.3 mm 3 mps 753 mmHg 99%
23:00 +1°C° 0.1 mm 3 mps 752 mmHg 99%

Tomorrow, 16 April, Friday

Time Temperature Precipitation Wind Pressure Humidity
00:00 +2°C° 0.1 mm 3 mps 752 mmHg 99%
01:00 +2°C° 0.1 mm 3 mps 752 mmHg 99%
02:00 +2°C° 0.3 mm 3 mps 752 mmHg 99%
03:00 +2°C° 0.3 mm 3 mps 752 mmHg 99%
04:00 +2°C° 0.3 mm 3 mps 752 mmHg 99%
05:00 +1°C° 0.4 mm 4 mps 752 mmHg 99%
06:00 +1°C° 0.4 mm 4 mps 752 mmHg 98%
07:00 0°C° 0.4 mm 4 mps 752 mmHg 98%
08:00 +1°C° 0.2 mm 4 mps 753 mmHg 98%
09:00 +1°C° 0.2 mm 4 mps 753 mmHg 98%
10:00 +1°C° 0.2 mm 4 mps 753 mmHg 98%
11:00 +1°C° 0.1 mm 4 mps 753 mmHg 98%
12:00 +1°C° 0.1 mm 4 mps 753 mmHg 98%
13:00 +1°C° 0.1 mm 4 mps 753 mmHg 97%
14:00 +1°C° 0.5 mm 4 mps 753 mmHg 97%
15:00 +2°C° 0.5 mm 3 mps 753 mmHg 98%
16:00 +2°C° 0.5 mm 3 mps 753 mmHg 98%
17:00 +2°C° 0.4 mm 3 mps 753 mmHg 98%
18:00 +2°C° 0.4 mm 3 mps 753 mmHg 98%
19:00 +2°C° 0.4 mm 3 mps 754 mmHg 98%
20:00 +3°C° 0 mm 2 mps 754 mmHg 98%
21:00 +3°C° 0 mm 2 mps 754 mmHg 98%
22:00 +3°C° 0 mm 2 mps 754 mmHg 98%
23:00 +3°C° 0 mm 2 mps 753 mmHg 98%

Day after tomorrow, 17 April, Saturday

Time Temperature Precipitation Wind Pressure Humidity
00:00 +3°C° 0 mm 2 mps 753 mmHg 98%
01:00 +3°C° 0 mm 2 mps 753 mmHg 98%
02:00 +3°C° 0 mm 2 mps 753 mmHg 98%
03:00 +3°C° 0 mm 2 mps 753 mmHg 98%
04:00 +3°C° 0 mm 2 mps 753 mmHg 98%
05:00 +4°C° 0.5 mm 2 mps 753 mmHg 98%
06:00 +3°C° 0.5 mm 3 mps 753 mmHg 97%
07:00 +3°C° 0.5 mm 3 mps 753 mmHg 97%
08:00 +4°C° 1.1 mm 3 mps 753 mmHg 97%
09:00 +4°C° 1.1 mm 3 mps 753 mmHg 97%
10:00 +5°C° 1.1 mm 2 mps 753 mmHg 97%
11:00 +6°C° 0.2 mm 2 mps 753 mmHg 96%
12:00 +6°C° 0.2 mm 2 mps 753 mmHg 96%
13:00 +8°C° 0.2 mm 1 mps 753 mmHg 95%
14:00 +8°C° 0.1 mm 1 mps 753 mmHg 93%
15:00 +9°C° 0.1 mm 1 mps 753 mmHg 91%
16:00 +9°C° 0.1 mm 1 mps 753 mmHg 89%
17:00 +9°C° 0.1 mm 1 mps 753 mmHg 90%
18:00 +8°C° 0.1 mm 1 mps 753 mmHg 91%
19:00 +8°C° 0.1 mm 1 mps 753 mmHg 93%
20:00 +7°C° 0 mm 1 mps 753 mmHg 93%
21:00 +6°C° 0 mm 2 mps 753 mmHg 93%
22:00 +5°C° 0 mm 2 mps 754 mmHg 93%
23:00 +5°C° 0.2 mm 2 mps 753 mmHg 94%

18 April, Sunday

Time Temperature Precipitation Wind Pressure Humidity
00:00 +6°C° 0.2 mm 2 mps 753 mmHg 95%
01:00 +6°C° 0.2 mm 2 mps 753 mmHg 95%
02:00 +5°C° 0.1 mm 2 mps 753 mmHg 96%
03:00 +5°C° 0.1 mm 2 mps 753 mmHg 96%
04:00 +5°C° 0.1 mm 2 mps 753 mmHg 96%
05:00 +5°C° 0 mm 2 mps 753 mmHg 95%
06:00 +5°C° 0 mm 2 mps 753 mmHg 95%
07:00 +6°C° 0 mm 2 mps 753 mmHg 94%
08:00 +6°C° 0 mm 2 mps 753 mmHg 90%
09:00 +7°C° 0 mm 2 mps 753 mmHg 87%
10:00 +8°C° 0 mm 2 mps 753 mmHg 83%
11:00 +9°C° 0 mm 2 mps 753 mmHg 78%
12:00 +10°C° 0 mm 3 mps 753 mmHg 72%
13:00 +11°C° 0 mm 3 mps 753 mmHg 67%
14:00 +12°C° 0 mm 2 mps 753 mmHg 66%
15:00 +12°C° 0 mm 2 mps 753 mmHg 65%
16:00 +12°C° 0 mm 2 mps 753 mmHg 64%
17:00 +10°C° 0 mm 2 mps 753 mmHg 69%
18:00 +9°C° 0 mm 2 mps 753 mmHg 74%
19:00 +8°C° 0 mm 2 mps 753 mmHg 79%
20:00 +8°C° 0.1 mm 2 mps 753 mmHg 80%
21:00 +8°C° 0.1 mm 2 mps 753 mmHg 82%
22:00 +8°C° 0.1 mm 2 mps 753 mmHg 84%
23:00 +8°C° 0 mm 2 mps 753 mmHg 84%

19 April, Monday

Time Temperature Precipitation Wind Pressure Humidity
00:00 +8°C° 0 mm 2 mps 753 mmHg 83%
01:00 +8°C° 0 mm 2 mps 752 mmHg 83%
02:00 +8°C° 0.1 mm 2 mps 752 mmHg 84%
03:00 +8°C° 0.1 mm 3 mps 752 mmHg 85%
04:00 +7°C° 0.1 mm 3 mps 752 mmHg 86%
05:00 +6°C° 0.1 mm 4 mps 752 mmHg 86%
06:00 +6°C° 0.1 mm 4 mps 751 mmHg 86%
07:00 +7°C° 0.1 mm 5 mps 751 mmHg 86%
08:00 +7°C° 0.2 mm 4 mps 751 mmHg 86%
09:00 +7°C° 0.2 mm 4 mps 751 mmHg 85%
10:00 +7°C° 0.2 mm 4 mps 751 mmHg 85%
11:00 +7°C° 0.1 mm 4 mps 750 mmHg 86%
12:00 +7°C° 0.1 mm 4 mps 750 mmHg 88%
13:00 +7°C° 0.1 mm 5 mps 750 mmHg 89%
14:00 +7°C° 0.1 mm 4 mps 750 mmHg 89%
15:00 +7°C° 0.1 mm 4 mps 749 mmHg 89%
16:00 +8°C° 0.1 mm 4 mps 749 mmHg 88%
17:00 +8°C° 0.1 mm 3 mps 749 mmHg 90%
18:00 +8°C° 0.1 mm 3 mps 749 mmHg 92%
19:00 +8°C° 0.1 mm 3 mps 748 mmHg 94%
20:00 +8°C° 0.1 mm 3 mps 748 mmHg 94%
21:00 +7°C° 0.1 mm 3 mps 748 mmHg 95%
22:00 +7°C° 0.1 mm 3 mps 748 mmHg 96%
23:00 +7°C° 0.4 mm 3 mps 747 mmHg 96%

20 April, Tuesday

Time Temperature Precipitation Wind Pressure Humidity
00:00 +7°C° 0.4 mm 3 mps 747 mmHg 97%
01:00 +7°C° 0.4 mm 3 mps 746 mmHg 97%
02:00 +7°C° 0.3 mm 3 mps 746 mmHg 97%
03:00 +7°C° 0.3 mm 3 mps 746 mmHg 97%
04:00 +8°C° 0.3 mm 3 mps 745 mmHg 98%
05:00 +8°C° 0.3 mm 3 mps 745 mmHg 97%
06:00 +7°C° 0.3 mm 4 mps 745 mmHg 97%
07:00 +7°C° 0.3 mm 4 mps 745 mmHg 96%
08:00 +7°C° 0.1 mm 4 mps 744 mmHg 94%
09:00 +8°C° 0.1 mm 4 mps 744 mmHg 92%
10:00 +8°C° 0.1 mm 4 mps 744 mmHg 90%
11:00 +8°C° 0.1 mm 4 mps 744 mmHg 89%
12:00 +8°C° 0.1 mm 4 mps 744 mmHg 88%
13:00 +8°C° 0.1 mm 4 mps 744 mmHg 87%
14:00 +9°C° 0.1 mm 5 mps 743 mmHg 86%
15:00 +9°C° 0.1 mm 5 mps 743 mmHg 85%
16:00 +9°C° 0.1 mm 5 mps 743 mmHg 83%
17:00 +8°C° 0 mm 5 mps 743 mmHg 86%
18:00 +8°C° 0 mm 4 mps 743 mmHg 88%
19:00 +7°C° 0 mm 4 mps 743 mmHg 91%
20:00 +7°C° 0 mm 4 mps 743 mmHg 92%
21:00 +6°C° 0 mm 4 mps 743 mmHg 93%
22:00 +6°C° 0 mm 4 mps 743 mmHg 94%
23:00 +6°C° 0 mm 4 mps 743 mmHg 93%
Show more